Regional Weather Roundup
Issued by NWS

Home | Current Version | Previous Version | Graphics & Text | Print | Product List | Glossary Off
Versions: 1 2 3 4 5 6 7 8 9 10 11 12 13 14 15 16 17 18 19 20 21 22 23 24 25 26 27 28 29 30 31 32 33 34 35 36 37 38 39 40 41 42 43 44 45 46 47 48 49 50

000
ASUS43 KMKX 011021
RWRWI

WISCONSIN REGIONAL WEATHER ROUNDUP
NATIONAL WEATHER SERVICE MILWAUKEE/SULLIVAN WI
500 AM CDT WED JUL 01 2015

NOTE: "FAIR" INDICATES FEW OR NO CLOUDS BELOW 12,000 FEET WITH NO
SIGNIFICANT WEATHER AND/OR OBSTRUCTIONS TO VISIBILITY.

WIZ001-002-006>008-014>016-023>028-011100-
NORTHWEST WISCONSIN

CITY           SKY/WX    TMP DP  RH WIND       PRES   REMARKS
SUPERIOR ARPT  PTCLDY    44  44 100 CALM      30.00S
ASHLAND        PTCLDY    42  41  96 CALM      30.01R
HAYWARD        PTCLDY    43  41  93 N5        30.01R
SIREN          PTCLDY    46  44  95 CALM      30.01R
CUMBERLAND     CLEAR     48  46  93 CALM      30.01R
RICE LAKE      CLEAR     48  46  94 CALM      30.02R
CHETEK         CLEAR     49  47  91 CALM      30.01R
LADYSMITH      PTCLDY    46  44  94 CALM      30.02S
EAU CLAIRE     PTCLDY    47  44  90 N5        29.98S
MENOMONIE      PTCLDY    51  49  93 CALM      30.00S
NEW RICHMOND   MOCLDY    53  51  93 NE3       29.99S
OSCEOLA        CLOUDY    54  54 100 CALM      30.01F
$$

WIZ003>005-009-010-017-018-011100-
NORTH CENTRAL WISCONSIN

CITY           SKY/WX    TMP DP  RH WIND       PRES   REMARKS
MANITOWISH WTR CLEAR     37  37 100 CALM      30.00S
ARBOR VITAE    CLEAR     42  40  94 CALM      30.00R
WOODRUFF       CLEAR     42  40  94 CALM      30.00R
RHINELANDER    CLEAR     44  41  89 CALM      30.00R
EAGLE RIVER    PTCLDY    36  36 100 CALM      29.98S FOG
LAND O LAKES     N/A     37  37 100 CALM      30.00R FOG
PHILLIPS       FOG       39  39 100 CALM      30.00R VSB 1/2
TOMAHAWK       CLEAR     33  32  96 CALM      30.01R
MEDFORD        CLEAR     40  40 100 NE3       30.00S
MERRILL        CLEAR     38  38 100 CALM      30.00S
$$

WIZ029-030-035-036-043>047-011100-
CENTRAL WISCONSIN

CITY           SKY/WX    TMP DP  RH WIND       PRES   REMARKS
WAUSAU         CLEAR     46  44  93 CALM      29.98R
MOSINEE        CLEAR     46  45  93 N6        30.00R
MARSHFIELD     CLEAR     47  43  86 CALM      29.99R
STEVENS POINT  CLEAR     41  40  97 CALM      29.99S
WAUPACA        CLEAR     48  45  88 NW3       29.98R
WAUTOMA        CLEAR     45  45 100 CALM      29.98R
WISC RAPIDS    CLEAR     46  43  89 CALM      29.99S
CAMP DOUGLAS   FOG       39  39 100 NW2       29.97F VSB<1/4
$$

WIZ011>013-019>022-031-037>040-048>050-011100-
NORTHEAST WISCONSIN

CITY           SKY/WX    TMP DP  RH WIND       PRES   REMARKS
ANTIGO         CLEAR     41  41  99 W3        29.98R
SHAWANO        CLEAR     48  43  85 NW6       29.97R
OCONTO         CLOUDY    48  46  92 N6        29.95R
STURGEON BAY   CLOUDY    52  46  82 N9        29.96R
GREEN BAY      CLOUDY    49  46  90 W5        29.96R
MANITOWOC      CLOUDY    52  48  86 MISG      29.95R
APPLETON       CLEAR     46  43  87 NW7       29.97R
CLINTONVILLE   CLEAR     48  43  81 NW6       29.97R
OSHKOSH        CLEAR     50  44  80 NW6       29.96R
$$

WIZ032>034-041-042-053>061-011100-
SOUTHWEST WISCONSIN

CITY           SKY/WX    TMP DP  RH WIND       PRES   REMARKS
LA CROSSE      PTCLDY    55  51  86 N5        29.97S
SPARTA         CLEAR     42  41  97 CALM      29.99S
VIROQUA        PTCLDY    51  51  99 CALM      29.97S
BOSCOBEL       PTCLDY    51  50  96 NE3       29.95F FOG
PRAIRIE DU CHI FOG       55  53  95 CALM      29.95S VSB 1/2
PLATTEVILLE    PTCLDY    55  54  96 NE6       29.93F
$$

WIZ056-057-062-063-064-067-068-011100-
SOUTH CENTRAL WISCONSIN

CITY           SKY/WX    TMP DP  RH WIND       PRES   REMARKS
REEDSBURG      PTCLDY    53  49  87 NE3       29.97S
BARABOO/DELLS  PTCLDY    51  46  80 CALM      29.97S
LONE ROCK      PTCLDY    56  52  86 NE7       29.96S
MINERAL POINT  MOCLDY    55  54  94 NE5       29.94F
MADISON        CLOUDY    56  48  74 N7        29.95R
MIDDLETON      CLOUDY    58  47  69 NE7       29.96F
WATERTOWN      CLOUDY    56  56 100 CALM      29.95R
MONROE         CLOUDY    57  55  94 E3        29.94S
JANESVILLE     CLOUDY    57  55  94 CALM      29.94S
$$

WIZ051-052-058>065-066-070>072-011100-
SOUTHEAST WISCONSIN

CITY           SKY/WX    TMP DP  RH WIND       PRES   REMARKS
MILWAUKEE      MOCLDY    55  49  80 NW7       29.95S
WAUKESHA       CLOUDY    52  50  93 CALM      29.95F
MILWAUKEE/TIMM MOCLDY    52  46  82 N7        29.95F
RACINE         CLOUDY    55  50  83 NW3       29.96S
BURLINGTON     CLOUDY    51  51  97 CALM      29.94F
KENOSHA        CLOUDY    54  50  86 N3        29.94F
FOND DU LAC    CLEAR     50  45  83 NW7       29.96R
SHEBOYGAN      CLEAR     49  45  86 NW5       29.95R
WEST BEND      PTCLDY    50  45  81 CALM      29.95S
JUNEAU         PTCLDY    51  46  82 CALM      29.97R
$$

LSZ147-162-011100-
LAKE SUPERIOR

STATION/POSITION TIME  TEMP    WIND        PRES    WAVE
                       AIR SEA DIR/SP/G            HT/PER
                 (UTC) (F)     (DEG/KT/KT) (MB)    (FT/S)
W MID LAKE BUOY  0950   44 38  150/  4/  4 1016.5R   1/ 5
DEVILS ISLAND    1000   52     140/  5/  6 1016.5R
SAXON HARBOR     0900   43      CALM  /  1 1015.6
$$

LMZ867-665-643>646-011100-
LAKE MICHIGAN

STATION/POSITION TIME  TEMP    WIND        PRES    WAVE
                       AIR SEA DIR/SP/G            HT/PER
                 (UTC) (F)     (DEG/KT/KT) (MB)    (FT/S)
CHAMBERS ISLAND  0900   53     340/ 12/ 15 1013.5R
N MID LAKE BUOY  0950   45 40  320/ 10/ 12 1012.8R   2/ 4
NORTHPORT PIER   0900   52     340/ 16/ 19 1012.9S
SISTER BAY       0814   52      10/ 13/ 17   N/A
ALGOMA LAKESHORE 0910          340/  5/  8   N/A
KEWAUNEE LAKESHO 0900   54     340/  3/  8 1012.5R
SHEBOYGAN LAKESH 1000   51     290/  9/ 10 1014.4R
PORT WASHINGTON  0900   53     300/  5/  7 1014.6
ATWATER BUOY     1000   56     330/ 10/ 12 1014.9F
MILWAUKEE LAKESH 1000   55     340/  8/ 10   N/A
KENOSHA   LAKESH 1000   54     320/  5/  7 1014.2R
$$

TC  - TEMPERATURE IN CELSIUS
VSB - VISIBILITY IN STATUTE MILES
WCI - WIND CHILL INDEX
HX  - HEAT INDEX



USA.gov is the U.S. government's official web portal to all federal, state and local government web resources and services.